Stündliche Wetter Holupovka

Heute, 15 Juni, Dienstag

Zeit Temperatur Niederschläge Wind Luftdruck Luftfeuchtigkeit
00:00 +15°C° 0 mm 0 m/S 745 mmHg 90%
01:00 +15°C° 0 mm 0 m/S 745 mmHg 90%
02:00 +15°C° 0 mm 1 m/S 745 mmHg 91%
03:00 +16°C° 0 mm 1 m/S 745 mmHg 91%
04:00 +16°C° 0 mm 1 m/S 745 mmHg 92%
05:00 +16°C° 0 mm 1 m/S 745 mmHg 92%
06:00 +19°C° 0 mm 1 m/S 745 mmHg 87%
07:00 +20°C° 0 mm 1 m/S 745 mmHg 82%
08:00 +22°C° 0 mm 1 m/S 745 mmHg 77%
09:00 +23°C° 0 mm 2 m/S 744 mmHg 72%
10:00 +24°C° 0 mm 2 m/S 744 mmHg 67%
11:00 +25°C° 0 mm 3 m/S 744 mmHg 62%
12:00 +25°C° 0 mm 3 m/S 744 mmHg 61%
13:00 +25°C° 0 mm 3 m/S 744 mmHg 60%
14:00 +26°C° 0 mm 3 m/S 743 mmHg 59%
15:00 +25°C° 0.2 mm 3 m/S 743 mmHg 64%
16:00 +24°C° 0.2 mm 3 m/S 743 mmHg 69%
17:00 +24°C° 0.2 mm 3 m/S 743 mmHg 74%
18:00 +21°C° 0.1 mm 3 m/S 743 mmHg 79%
19:00 +20°C° 0.1 mm 2 m/S 743 mmHg 84%
20:00 +18°C° 0.1 mm 2 m/S 743 mmHg 89%
21:00 +17°C° 0 mm 2 m/S 743 mmHg 90%
22:00 +16°C° 0 mm 2 m/S 743 mmHg 91%
23:00 +16°C° 0 mm 2 m/S 743 mmHg 91%

Morgen, 16 Juni, Mittwoch

Zeit Temperatur Niederschläge Wind Luftdruck Luftfeuchtigkeit
00:00 +15°C° 0 mm 2 m/S 743 mmHg 91%
01:00 +14°C° 0 mm 2 m/S 743 mmHg 90%
02:00 +13°C° 0 mm 2 m/S 743 mmHg 90%
03:00 +14°C° 0 mm 2 m/S 743 mmHg 90%
04:00 +14°C° 0 mm 2 m/S 743 mmHg 90%
05:00 +15°C° 0 mm 2 m/S 744 mmHg 90%
06:00 +16°C° 0 mm 2 m/S 744 mmHg 85%
07:00 +18°C° 0 mm 2 m/S 744 mmHg 80%
08:00 +20°C° 0 mm 3 m/S 744 mmHg 74%
09:00 +21°C° 0.1 mm 3 m/S 745 mmHg 71%
10:00 +22°C° 0.1 mm 3 m/S 745 mmHg 67%
11:00 +24°C° 0.1 mm 3 m/S 745 mmHg 63%
12:00 +24°C° 0.3 mm 3 m/S 745 mmHg 63%
13:00 +24°C° 0.3 mm 3 m/S 745 mmHg 62%
14:00 +25°C° 0.3 mm 3 m/S 745 mmHg 62%
15:00 +25°C° 0 mm 3 m/S 745 mmHg 62%
16:00 +24°C° 0 mm 3 m/S 746 mmHg 62%
17:00 +24°C° 0 mm 3 m/S 746 mmHg 63%
18:00 +21°C° 0 mm 3 m/S 746 mmHg 67%
19:00 +20°C° 0 mm 3 m/S 747 mmHg 72%
20:00 +18°C° 0 mm 2 m/S 747 mmHg 77%
21:00 +17°C° 0 mm 2 m/S 747 mmHg 76%
22:00 +16°C° 0 mm 2 m/S 748 mmHg 75%
23:00 +15°C° 0 mm 2 m/S 748 mmHg 74%

übermorgen, 17 Juni, Donnerstag

Zeit Temperatur Niederschläge Wind Luftdruck Luftfeuchtigkeit
00:00 +14°C° 0 mm 2 m/S 748 mmHg 75%
01:00 +14°C° 0 mm 2 m/S 749 mmHg 76%
02:00 +13°C° 0 mm 2 m/S 749 mmHg 77%
03:00 +13°C° 0 mm 2 m/S 749 mmHg 79%
04:00 +13°C° 0 mm 2 m/S 750 mmHg 80%
05:00 +13°C° 0 mm 2 m/S 750 mmHg 81%
06:00 +16°C° 0 mm 2 m/S 750 mmHg 74%
07:00 +18°C° 0 mm 2 m/S 751 mmHg 67%
08:00 +20°C° 0 mm 3 m/S 751 mmHg 60%
09:00 +21°C° 0 mm 3 m/S 751 mmHg 56%
10:00 +23°C° 0 mm 2 m/S 751 mmHg 51%
11:00 +24°C° 0 mm 2 m/S 752 mmHg 47%
12:00 +25°C° 0 mm 2 m/S 752 mmHg 46%
13:00 +25°C° 0 mm 2 m/S 752 mmHg 45%
14:00 +26°C° 0 mm 2 m/S 752 mmHg 44%
15:00 +25°C° 0 mm 2 m/S 752 mmHg 48%
16:00 +25°C° 0 mm 2 m/S 752 mmHg 52%
17:00 +25°C° 0 mm 2 m/S 752 mmHg 56%
18:00 +23°C° 0 mm 2 m/S 752 mmHg 62%
19:00 +20°C° 0 mm 2 m/S 752 mmHg 68%
20:00 +18°C° 0 mm 2 m/S 752 mmHg 75%
21:00 +17°C° 0 mm 2 m/S 752 mmHg 76%
22:00 +16°C° 0 mm 2 m/S 752 mmHg 77%
23:00 +15°C° 0 mm 2 m/S 753 mmHg 79%

18 Juni, Freitag

Zeit Temperatur Niederschläge Wind Luftdruck Luftfeuchtigkeit
00:00 +15°C° 0 mm 2 m/S 753 mmHg 81%
01:00 +14°C° 0 mm 1 m/S 753 mmHg 83%
02:00 +13°C° 0 mm 1 m/S 753 mmHg 85%
03:00 +14°C° 0 mm 1 m/S 753 mmHg 85%
04:00 +15°C° 0 mm 1 m/S 754 mmHg 85%
05:00 +15°C° 0 mm 1 m/S 754 mmHg 84%
06:00 +18°C° 0 mm 1 m/S 754 mmHg 78%
07:00 +20°C° 0 mm 1 m/S 754 mmHg 72%
08:00 +21°C° 0 mm 2 m/S 754 mmHg 66%
09:00 +23°C° 0 mm 2 m/S 754 mmHg 61%
10:00 +24°C° 0 mm 2 m/S 754 mmHg 56%
11:00 +25°C° 0 mm 3 m/S 754 mmHg 51%
12:00 +25°C° 0 mm 3 m/S 754 mmHg 50%
13:00 +26°C° 0 mm 3 m/S 754 mmHg 49%
14:00 +26°C° 0 mm 3 m/S 754 mmHg 48%
15:00 +26°C° 0 mm 2 m/S 753 mmHg 51%
16:00 +26°C° 0 mm 2 m/S 753 mmHg 55%
17:00 +26°C° 0 mm 2 m/S 753 mmHg 59%
18:00 +24°C° 0 mm 2 m/S 753 mmHg 66%
19:00 +22°C° 0 mm 1 m/S 753 mmHg 73%
20:00 +20°C° 0 mm 1 m/S 753 mmHg 80%
21:00 +19°C° 0 mm 1 m/S 753 mmHg 83%
22:00 +17°C° 0 mm 2 m/S 753 mmHg 86%
23:00 +17°C° 0 mm 2 m/S 753 mmHg 89%

19 Juni, Samstag

Zeit Temperatur Niederschläge Wind Luftdruck Luftfeuchtigkeit
00:00 +16°C° 0 mm 2 m/S 754 mmHg 91%
01:00 +16°C° 0 mm 2 m/S 754 mmHg 93%
02:00 +15°C° 0 mm 2 m/S 754 mmHg 94%
03:00 +16°C° 0 mm 2 m/S 754 mmHg 93%
04:00 +16°C° 0 mm 2 m/S 754 mmHg 92%
05:00 +16°C° 0 mm 1 m/S 754 mmHg 91%
06:00 +18°C° 0 mm 2 m/S 754 mmHg 84%
07:00 +20°C° 0 mm 2 m/S 754 mmHg 77%
08:00 +21°C° 0 mm 2 m/S 754 mmHg 70%
09:00 +23°C° 0 mm 2 m/S 754 mmHg 65%
10:00 +24°C° 0 mm 2 m/S 754 mmHg 60%
11:00 +25°C° 0 mm 2 m/S 754 mmHg 55%
12:00 +26°C° 0 mm 2 m/S 754 mmHg 54%
13:00 +26°C° 0 mm 2 m/S 753 mmHg 52%
14:00 +27°C° 0 mm 2 m/S 753 mmHg 51%
15:00 +27°C° 0 mm 2 m/S 753 mmHg 54%
16:00 +27°C° 0 mm 2 m/S 753 mmHg 57%
17:00 +26°C° 0 mm 2 m/S 752 mmHg 60%
18:00 +25°C° 0 mm 2 m/S 752 mmHg 67%
19:00 +23°C° 0 mm 1 m/S 752 mmHg 74%
20:00 +21°C° 0 mm 1 m/S 752 mmHg 82%
21:00 +20°C° 0 mm 1 m/S 752 mmHg 84%
22:00 +19°C° 0 mm 1 m/S 752 mmHg 87%
23:00 +18°C° 0 mm 1 m/S 752 mmHg 89%

20 Juni, Sonntag

Zeit Temperatur Niederschläge Wind Luftdruck Luftfeuchtigkeit
00:00 +18°C° 0 mm 1 m/S 752 mmHg 90%
01:00 +16°C° 0 mm 1 m/S 753 mmHg 90%
02:00 +16°C° 0 mm 1 m/S 753 mmHg 91%
03:00 +16°C° 0 mm 1 m/S 753 mmHg 91%
04:00 +18°C° 0 mm 1 m/S 753 mmHg 90%
05:00 +18°C° 0 mm 1 m/S 753 mmHg 89%
06:00 +20°C° 0 mm 1 m/S 753 mmHg 83%
07:00 +20°C° 0 mm 2 m/S 753 mmHg 77%
08:00 +23°C° 0 mm 2 m/S 752 mmHg 71%
09:00 +24°C° 0 mm 2 m/S 752 mmHg 67%
10:00 +25°C° 0 mm 2 m/S 752 mmHg 62%
11:00 +26°C° 0 mm 2 m/S 752 mmHg 57%
12:00 +27°C° 0 mm 2 m/S 752 mmHg 55%
13:00 +27°C° 0 mm 2 m/S 751 mmHg 53%
14:00 +28°C° 0 mm 3 m/S 751 mmHg 51%
15:00 +27°C° 0 mm 2 m/S 751 mmHg 54%
16:00 +27°C° 0 mm 2 m/S 751 mmHg 57%
17:00 +27°C° 0 mm 2 m/S 751 mmHg 61%
18:00 +25°C° 0 mm 2 m/S 750 mmHg 67%
19:00 +23°C° 0 mm 2 m/S 750 mmHg 74%
20:00 +20°C° 0 mm 2 m/S 750 mmHg 80%
21:00 +20°C° 0 mm 1 m/S 750 mmHg 82%
22:00 +19°C° 0 mm 1 m/S 750 mmHg 84%
23:00 +18°C° 0 mm 1 m/S 750 mmHg 86%
Mehr zeigen

Wir brauchen deine Erlaubnis

Meteoprog und unser Service Anbieter werden persönliche Daten aufbewahren, so wie Cookies, Geräte Bezeichnung oder ähnliche Technologien von deinem Gerät und Prozess, so wie Persönliche Daten Inhalte und Werbungen, genauso wie social Media und den Verkehr zu analysieren.

  • Aufbewahrung und/oder Zugang zu deiner Geräte Informationen.

    Cookies, Geräte Bezeichnung oder andere Informationen, können aufbewahrt oder Zugang zu deinem Gerät erhalten, für den Grund, der oben angegeben wird.

  • Personalisierte Werbung und Inhalte, Messungen, Einblick in das Publikum und Produkt Entwicklung.

    Werbungen und Inhalte können personalisiert werden, basierend auf ein Profil. Mehr Daten können besser personalisierte Werbungen und Inhalte hinzufügen. Werbung und Inhalte können gezeigt und gemessen werden. Einblicke über das Publikum, welche die Werbung gesehen haben und den Inhalt, können abgeleitet werden. So wie Daten können genutzt werden, um es zu verbessern oder die Benutzer Erfahrung zu verbessern das System und die Software.

Wenn du “Ich stimme zu” klickst, erlaubst du uns, die Cookies zu benutzen die Geräte Bezeichnung, den Web oder ähnliche Technologien zu benutzen. Deine Settings, können in deinem Gerät bei deinem Browser geändert werden.

Für den bestimmten Zweck, berechtigten Interessen beruhen darauf, mehr als auf den Inhalt. Du kannst mehr darüber in unseren Privaten und Cookie Politik lesen.